Date_UTC,IAGA,MLT,MLAT,IGRF_DECL,SZA,N,E,Z
2015-08-15 08:00:00,FYU,20.86,67.65,20.35,96.99,4.4,3.0,0.3
2015-08-15 08:01:00,FYU,20.88,67.65,20.35,97.03,6.1,3.3,1.0
2015-08-15 08:02:00,FYU,20.89,67.65,20.35,97.07,5.0,2.2,0.6
2015-08-15 08:03:00,FYU,20.91,67.65,20.35,97.11,3.4,0.9,-0.7
2015-08-15 08:04:00,FYU,20.93,67.65,20.35,97.16,6.9,2.3,0.7
2015-08-15 08:05:00,FYU,20.94,67.65,20.35,97.20,9.5,3.0,2.0
2015-08-15 08:06:00,FYU,20.96,67.65,20.35,97.24,9.0,1.8,1.1
2015-08-15 08:07:00,FYU,20.98,67.65,20.35,97.28,8.3,1.0,-0.1
2015-08-15 08:08:00,FYU,20.99,67.65,20.35,97.32,10.2,1.5,0.3
2015-08-15 08:09:00,FYU,21.01,67.65,20.35,97.36,12.3,1.7,1.5
2015-08-15 08:10:00,FYU,21.03,67.65,20.35,97.40,11.6,1.1,1.7
2015-08-15 08:11:00,FYU,21.04,67.65,20.35,97.44,12.3,0.9,2.3
2015-08-15 08:12:00,FYU,21.06,67.65,20.35,97.48,13.3,1.4,2.9
2015-08-15 08:13:00,FYU,21.08,67.65,20.35,97.52,13.5,1.5,3.3
2015-08-15 08:14:00,FYU,21.09,67.65,20.35,97.56,13.9,2.2,3.8
2015-08-15 08:15:00,FYU,21.11,67.65,20.35,97.60,12.4,2.5,3.2
2015-08-15 08:16:00,FYU,21.13,67.65,20.35,97.63,11.0,2.5,3.1
2015-08-15 08:17:00,FYU,21.14,67.65,20.35,97.67,8.9,1.6,2.2
2015-08-15 08:18:00,FYU,21.16,67.65,20.35,97.71,11.1,1.7,2.0
2015-08-15 08:19:00,FYU,21.18,67.65,20.35,97.74,10.8,1.7,0.3
2015-08-15 08:20:00,FYU,21.19,67.65,20.35,97.78,8.2,0.3,-1.5
2015-08-15 08:21:00,FYU,21.21,67.65,20.35,97.81,-0.4,-2.2,-5.4
2015-08-15 08:22:00,FYU,21.23,67.65,20.35,97.85,-7.0,-3.4,-9.0
2015-08-15 08:23:00,FYU,21.24,67.65,20.35,97.88,-6.6,-2.6,-8.6
2015-08-15 08:24:00,FYU,21.26,67.65,20.35,97.92,-9.0,-1.8,-9.5
2015-08-15 08:25:00,FYU,21.28,67.65,20.35,97.95,-8.1,1.1,-8.1
2015-08-15 08:26:00,FYU,21.29,67.65,20.35,97.99,-7.1,1.6,-6.9
2015-08-15 08:27:00,FYU,21.31,67.65,20.35,98.02,-4.8,1.7,-6.2
2015-08-15 08:28:00,FYU,21.33,67.65,20.35,98.05,-3.9,4.2,-5.5
2015-08-15 08:29:00,FYU,21.35,67.65,20.35,98.09,2.2,11.6,-1.9
2015-08-15 08:30:00,FYU,21.36,67.65,20.35,98.12,12.0,12.4,4.6
2015-08-15 08:31:00,FYU,21.38,67.65,20.35,98.15,-24.4,16.5,-13.1
2015-08-15 08:32:00,FYU,21.40,67.65,20.35,98.18,-66.1,2.8,-36.8
2015-08-15 08:33:00,FYU,21.41,67.65,20.35,98.21,-36.5,-9.2,-33.3
2015-08-15 08:34:00,FYU,21.43,67.65,20.35,98.24,-34.8,-5.0,-42.6
2015-08-15 08:35:00,FYU,21.45,67.65,20.35,98.27,-53.3,-3.6,-49.0
2015-08-15 08:36:00,FYU,21.46,67.65,20.35,98.30,-45.6,-11.9,-43.4
2015-08-15 08:37:00,FYU,21.48,67.65,20.35,98.33,-27.8,-18.9,-44.0
2015-08-15 08:38:00,FYU,21.50,67.65,20.35,98.36,-21.0,-20.1,-39.4
2015-08-15 08:39:00,FYU,21.51,67.65,20.35,98.39,-38.3,-15.5,-36.0
2015-08-15 08:40:00,FYU,21.53,67.65,20.35,98.42,-42.3,-17.7,-35.1
2015-08-15 08:41:00,FYU,21.55,67.65,20.35,98.44,-33.6,-30.1,-36.7
2015-08-15 08:42:00,FYU,21.56,67.65,20.35,98.47,-22.1,-22.9,-36.1
2015-08-15 08:43:00,FYU,21.58,67.65,20.35,98.50,-44.7,-25.1,-43.6
2015-08-15 08:44:00,FYU,21.60,67.65,20.35,98.52,-81.5,-39.1,-61.2
2015-08-15 08:45:00,FYU,21.61,67.65,20.35,98.55,-83.0,-27.2,-53.2
2015-08-15 08:46:00,FYU,21.63,67.65,20.35,98.57,-97.0,-23.7,-52.7
2015-08-15 08:47:00,FYU,21.65,67.65,20.35,98.60,-113.3,-25.3,-43.7
2015-08-15 08:48:00,FYU,21.66,67.65,20.35,98.62,-99.1,-6.4,-20.9
2015-08-15 08:49:00,FYU,21.68,67.65,20.35,98.65,-111.3,-5.1,-22.4
2015-08-15 08:50:00,FYU,21.70,67.65,20.35,98.67,-116.0,-2.2,-22.9
2015-08-15 08:51:00,FYU,21.71,67.65,20.35,98.70,-121.7,-11.5,-20.9
2015-08-15 08:52:00,FYU,21.73,67.65,20.35,98.72,-94.6,-4.6,-16.3
2015-08-15 08:53:00,FYU,21.75,67.65,20.35,98.74,-103.7,-6.8,-16.9
2015-08-15 08:54:00,FYU,21.76,67.65,20.35,98.76,-96.4,-5.8,-8.5
2015-08-15 08:55:00,FYU,21.78,67.65,20.35,98.79,-89.2,-6.0,-9.8
2015-08-15 08:56:00,FYU,21.80,67.65,20.35,98.81,-74.1,-10.1,-3.0
2015-08-15 08:57:00,FYU,21.81,67.65,20.35,98.83,-76.5,-10.3,-2.4
2015-08-15 08:58:00,FYU,21.83,67.65,20.35,98.85,-94.0,4.3,-12.7
2015-08-15 08:59:00,FYU,21.85,67.65,20.35,98.87,-93.2,-1.6,-6.7
2015-08-15 09:00:00,FYU,21.86,67.65,20.35,98.89,-98.9,0.9,-5.8
2015-08-15 09:01:00,FYU,21.88,67.65,20.35,98.91,-88.5,-8.0,-6.3
2015-08-15 09:02:00,FYU,21.90,67.65,20.35,98.93,-81.4,-0.1,-9.4
2015-08-15 09:03:00,FYU,21.91,67.65,20.35,98.95,-110.1,-19.0,0.2
2015-08-15 09:04:00,FYU,21.93,67.65,20.35,98.96,-96.9,-36.3,25.5
2015-08-15 09:05:00,FYU,21.95,67.65,20.35,98.98,-118.8,-32.3,26.9
2015-08-15 09:06:00,FYU,21.96,67.65,20.35,99.00,-119.3,-38.4,39.1
2015-08-15 09:07:00,FYU,21.98,67.65,20.35,99.02,-122.6,-15.2,47.7
2015-08-15 09:08:00,FYU,22.00,67.65,20.35,99.03,-70.8,-8.3,83.2
2015-08-15 09:09:00,FYU,22.02,67.65,20.35,99.05,-80.2,18.7,78.8
2015-08-15 09:10:00,FYU,22.03,67.65,20.35,99.06,-93.7,37.2,87.7
2015-08-15 09:11:00,FYU,22.05,67.65,20.35,99.08,-75.8,40.9,103.6
2015-08-15 09:12:00,FYU,22.07,67.65,20.35,99.09,-108.9,45.3,93.8
2015-08-15 09:13:00,FYU,22.08,67.65,20.35,99.11,-151.0,34.6,78.5
2015-08-15 09:14:00,FYU,22.10,67.65,20.35,99.12,-144.6,33.1,76.9
2015-08-15 09:15:00,FYU,22.12,67.65,20.35,99.14,-172.7,41.0,63.4
2015-08-15 09:16:00,FYU,22.13,67.65,20.35,99.15,-178.8,32.8,70.5
2015-08-15 09:17:00,FYU,22.15,67.65,20.35,99.16,-202.7,28.2,76.0
2015-08-15 09:18:00,FYU,22.17,67.65,20.35,99.17,-230.9,5.5,71.6
2015-08-15 09:19:00,FYU,22.18,67.65,20.35,99.19,-170.2,5.4,117.8
2015-08-15 09:20:00,FYU,22.20,67.65,20.35,99.20,-165.9,16.6,132.5
2015-08-15 09:21:00,FYU,22.22,67.65,20.35,99.21,-137.2,9.1,152.3
2015-08-15 09:22:00,FYU,22.23,67.65,20.35,99.22,-133.1,12.8,143.8
2015-08-15 09:23:00,FYU,22.25,67.65,20.35,99.23,-157.7,46.4,102.8
2015-08-15 09:24:00,FYU,22.27,67.65,20.35,99.24,-181.7,43.7,67.3
2015-08-15 09:25:00,FYU,22.28,67.65,20.35,99.25,-246.6,0.7,27.5
2015-08-15 09:26:00,FYU,22.30,67.65,20.35,99.26,-277.8,19.4,20.0
2015-08-15 09:27:00,FYU,22.32,67.65,20.35,99.27,-296.9,6.6,29.3
2015-08-15 09:28:00,FYU,22.33,67.65,20.35,99.27,-253.3,-25.9,47.5
2015-08-15 09:29:00,FYU,22.35,67.65,20.35,99.28,-280.8,-36.5,16.1
2015-08-15 09:30:00,FYU,22.37,67.65,20.35,99.29,-262.1,-22.4,11.9
2015-08-15 09:31:00,FYU,22.38,67.65,20.35,99.29,-204.1,-32.3,29.4
2015-08-15 09:32:00,FYU,22.40,67.65,20.35,99.30,-197.7,-30.8,15.7
2015-08-15 09:33:00,FYU,22.42,67.65,20.35,99.31,-193.2,-14.4,1.9
2015-08-15 09:34:00,FYU,22.43,67.65,20.35,99.31,-179.7,-6.0,-0.7
2015-08-15 09:35:00,FYU,22.45,67.65,20.35,99.32,-224.3,0.1,-23.7
2015-08-15 09:36:00,FYU,22.47,67.65,20.35,99.32,-248.3,13.4,-33.6
2015-08-15 09:37:00,FYU,22.48,67.65,20.35,99.33,-269.6,31.1,-28.4
2015-08-15 09:38:00,FYU,22.50,67.65,20.35,99.33,-270.9,38.1,-10.8
2015-08-15 09:39:00,FYU,22.52,67.65,20.35,99.33,-273.7,51.7,3.5
2015-08-15 09:40:00,FYU,22.53,67.65,20.35,99.34,-253.9,59.0,25.1
2015-08-15 09:41:00,FYU,22.55,67.65,20.35,99.34,-264.3,58.7,29.3
2015-08-15 09:42:00,FYU,22.57,67.65,20.35,99.34,-247.1,48.1,43.7
2015-08-15 09:43:00,FYU,22.59,67.65,20.35,99.34,-227.5,38.9,57.1
2015-08-15 09:44:00,FYU,22.60,67.65,20.35,99.34,-223.5,51.1,58.5
2015-08-15 09:45:00,FYU,22.62,67.65,20.35,99.34,-216.2,64.6,58.5
2015-08-15 09:46:00,FYU,22.64,67.65,20.35,99.34,-177.8,45.8,74.3
2015-08-15 09:47:00,FYU,22.65,67.65,20.35,99.34,-188.3,34.6,67.7
2015-08-15 09:48:00,FYU,22.67,67.65,20.35,99.34,-215.8,33.0,57.9
2015-08-15 09:49:00,FYU,22.69,67.65,20.35,99.34,-226.1,42.3,60.9
2015-08-15 09:50:00,FYU,22.70,67.65,20.35,99.34,-197.5,48.4,76.8
2015-08-15 09:51:00,FYU,22.72,67.65,20.35,99.34,-170.6,52.5,86.3
2015-08-15 09:52:00,FYU,22.74,67.65,20.35,99.34,-158.4,59.6,82.7
2015-08-15 09:53:00,FYU,22.75,67.65,20.35,99.33,-143.2,60.1,78.7
2015-08-15 09:54:00,FYU,22.77,67.65,20.35,99.33,-126.5,59.8,78.8
2015-08-15 09:55:00,FYU,22.79,67.65,20.35,99.33,-112.5,63.0,81.5
2015-08-15 09:56:00,FYU,22.80,67.65,20.35,99.32,-108.5,55.3,83.5
2015-08-15 09:57:00,FYU,22.82,67.65,20.35,99.32,-115.0,62.9,76.1
2015-08-15 09:58:00,FYU,22.84,67.65,20.35,99.31,-112.1,60.9,68.3
2015-08-15 09:59:00,FYU,22.85,67.65,20.35,99.31,-119.2,49.6,57.8
2015-08-15 10:00:00,FYU,22.87,67.65,20.35,99.30,-98.3,23.6,60.6
2015-08-15 10:01:00,FYU,22.89,67.65,20.35,99.30,-100.5,1.8,53.2
2015-08-15 10:02:00,FYU,22.90,67.65,20.35,99.29,-113.9,-4.7,47.5
2015-08-15 10:03:00,FYU,22.92,67.65,20.35,99.28,-136.9,-4.2,37.9
2015-08-15 10:04:00,FYU,22.94,67.65,20.35,99.28,-156.5,1.5,31.8
2015-08-15 10:05:00,FYU,22.95,67.65,20.35,99.27,-113.1,-8.4,57.5
2015-08-15 10:06:00,FYU,22.97,67.65,20.35,99.26,-95.3,-3.6,70.6
2015-08-15 10:07:00,FYU,22.99,67.65,20.35,99.25,-111.2,-5.5,64.3
2015-08-15 10:08:00,FYU,23.00,67.65,20.35,99.24,-121.7,1.9,57.1
2015-08-15 10:09:00,FYU,23.02,67.65,20.35,99.23,-138.8,-3.1,53.1
2015-08-15 10:10:00,FYU,23.04,67.65,20.35,99.22,-132.2,-7.7,60.9
2015-08-15 10:11:00,FYU,23.05,67.65,20.35,99.21,-155.3,-13.3,53.0
2015-08-15 10:12:00,FYU,23.07,67.65,20.35,99.20,-174.6,-24.5,48.9
2015-08-15 10:13:00,FYU,23.09,67.65,20.35,99.19,-173.6,-27.8,57.4
2015-08-15 10:14:00,FYU,23.10,67.65,20.35,99.18,-176.4,-26.0,64.2
2015-08-15 10:15:00,FYU,23.12,67.65,20.35,99.17,-188.8,-12.0,63.2
2015-08-15 10:16:00,FYU,23.14,67.65,20.35,99.16,-204.8,-3.0,59.9
2015-08-15 10:17:00,FYU,23.15,67.65,20.35,99.14,-203.1,-1.6,63.4
2015-08-15 10:18:00,FYU,23.17,67.65,20.35,99.13,-188.6,-17.2,74.4
2015-08-15 10:19:00,FYU,23.19,67.65,20.35,99.12,-194.1,-17.5,73.4
2015-08-15 10:20:00,FYU,23.20,67.65,20.35,99.10,-218.9,-9.3,62.3
2015-08-15 10:21:00,FYU,23.22,67.65,20.35,99.09,-227.0,-10.2,58.3
2015-08-15 10:22:00,FYU,23.24,67.65,20.35,99.07,-226.0,-20.4,54.4
2015-08-15 10:23:00,FYU,23.25,67.65,20.35,99.06,-214.2,-26.7,56.5
2015-08-15 10:24:00,FYU,23.27,67.65,20.35,99.04,-198.9,-16.5,61.6
2015-08-15 10:25:00,FYU,23.29,67.65,20.35,99.03,-180.2,-5.0,67.0
2015-08-15 10:26:00,FYU,23.30,67.65,20.35,99.01,-189.8,-6.9,60.2
2015-08-15 10:27:00,FYU,23.32,67.65,20.35,98.99,-193.3,-11.3,59.3
2015-08-15 10:28:00,FYU,23.34,67.65,20.35,98.97,-179.9,4.0,66.1
2015-08-15 10:29:00,FYU,23.35,67.65,20.35,98.96,-178.3,13.7,67.0
2015-08-15 10:30:00,FYU,23.37,67.65,20.35,98.94,-176.2,16.7,67.9
2015-08-15 10:31:00,FYU,23.39,67.65,20.35,98.92,-168.2,16.0,73.7
2015-08-15 10:32:00,FYU,23.40,67.65,20.35,98.90,-182.5,42.1,72.0
2015-08-15 10:33:00,FYU,23.42,67.65,20.35,98.88,-187.5,59.4,86.1
2015-08-15 10:34:00,FYU,23.44,67.65,20.35,98.86,-185.2,69.4,111.5
2015-08-15 10:35:00,FYU,23.45,67.65,20.35,98.84,-165.1,54.8,142.4
2015-08-15 10:36:00,FYU,23.47,67.65,20.35,98.82,-143.9,30.5,162.0
2015-08-15 10:37:00,FYU,23.48,67.65,20.35,98.80,-126.4,23.1,162.2
2015-08-15 10:38:00,FYU,23.50,67.65,20.35,98.78,-112.9,19.9,157.5
2015-08-15 10:39:00,FYU,23.52,67.65,20.35,98.75,-132.7,18.5,147.1
2015-08-15 10:40:00,FYU,23.53,67.65,20.35,98.73,-151.4,15.1,145.6
2015-08-15 10:41:00,FYU,23.55,67.65,20.35,98.71,-147.6,7.5,155.0
2015-08-15 10:42:00,FYU,23.57,67.65,20.35,98.69,-129.1,4.3,175.1
2015-08-15 10:43:00,FYU,23.58,67.65,20.35,98.66,-115.9,-3.1,194.5
2015-08-15 10:44:00,FYU,23.60,67.65,20.35,98.64,-104.5,-5.7,211.2
2015-08-15 10:45:00,FYU,23.62,67.65,20.35,98.61,-90.4,-8.5,230.8
2015-08-15 10:46:00,FYU,23.63,67.65,20.35,98.59,-58.1,-30.9,253.7
2015-08-15 10:47:00,FYU,23.65,67.65,20.35,98.56,-36.4,-37.8,255.0
2015-08-15 10:48:00,FYU,23.67,67.65,20.35,98.54,-18.5,-28.6,245.7
2015-08-15 10:49:00,FYU,23.68,67.65,20.35,98.51,1.8,-32.3,240.8
2015-08-15 10:50:00,FYU,23.70,67.65,20.35,98.48,11.7,-33.7,237.2
2015-08-15 10:51:00,FYU,23.71,67.65,20.35,98.46,26.7,-31.3,235.7
2015-08-15 10:52:00,FYU,23.73,67.65,20.35,98.43,36.3,-30.4,231.9
2015-08-15 10:53:00,FYU,23.75,67.65,20.35,98.40,41.4,-35.7,226.9
2015-08-15 10:54:00,FYU,23.76,67.65,20.35,98.37,53.8,-34.8,224.8
2015-08-15 10:55:00,FYU,23.78,67.65,20.35,98.35,70.3,-36.4,223.7
2015-08-15 10:56:00,FYU,23.80,67.65,20.35,98.32,80.5,-43.8,221.4
2015-08-15 10:57:00,FYU,23.81,67.65,20.35,98.29,63.0,-48.5,207.6
2015-08-15 10:58:00,FYU,23.83,67.65,20.35,98.26,76.6,-38.9,202.4
2015-08-15 10:59:00,FYU,23.85,67.65,20.35,98.23,87.0,-30.1,198.7
2015-08-15 11:00:00,FYU,23.86,67.65,20.35,98.20,100.9,-21.4,195.1
2015-08-15 11:01:00,FYU,23.88,67.65,20.35,98.17,111.6,-19.1,192.2
2015-08-15 11:02:00,FYU,23.89,67.65,20.35,98.13,113.6,-21.7,187.1
2015-08-15 11:03:00,FYU,23.91,67.65,20.35,98.10,114.8,-18.7,180.8
2015-08-15 11:04:00,FYU,23.93,67.65,20.35,98.07,119.4,-15.9,174.7
2015-08-15 11:05:00,FYU,23.94,67.65,20.35,98.04,126.3,-23.7,171.8
2015-08-15 11:06:00,FYU,23.96,67.65,20.35,98.00,133.3,-14.2,170.6
2015-08-15 11:07:00,FYU,23.98,67.65,20.35,97.97,134.0,-17.6,166.7
2015-08-15 11:08:00,FYU,23.99,67.65,20.35,97.94,135.7,-15.4,165.5
2015-08-15 11:09:00,FYU,0.01,67.65,20.35,97.90,133.9,-13.0,162.0
2015-08-15 11:10:00,FYU,0.02,67.65,20.35,97.87,126.5,-16.0,157.5
2015-08-15 11:11:00,FYU,0.04,67.65,20.35,97.83,121.4,-21.3,155.7
2015-08-15 11:12:00,FYU,0.06,67.65,20.35,97.80,129.8,-20.9,158.0
2015-08-15 11:13:00,FYU,0.07,67.65,20.35,97.76,125.3,-22.3,157.1
2015-08-15 11:14:00,FYU,0.09,67.65,20.35,97.73,115.6,-29.4,153.5
2015-08-15 11:15:00,FYU,0.10,67.65,20.35,97.69,118.7,-30.6,154.2
2015-08-15 11:16:00,FYU,0.12,67.65,20.35,97.65,117.5,-33.6,157.0
2015-08-15 11:17:00,FYU,0.14,67.65,20.35,97.62,104.6,-39.0,154.8
2015-08-15 11:18:00,FYU,0.15,67.65,20.35,97.58,94.3,-40.7,153.7
2015-08-15 11:19:00,FYU,0.17,67.65,20.35,97.54,85.9,-32.4,160.3
2015-08-15 11:20:00,FYU,0.18,67.65,20.35,97.50,94.3,-16.4,169.9
2015-08-15 11:21:00,FYU,0.20,67.65,20.35,97.46,107.0,-12.8,186.1
2015-08-15 11:22:00,FYU,0.22,67.65,20.35,97.42,73.5,-20.4,200.1
2015-08-15 11:23:00,FYU,0.23,67.65,20.35,97.38,-5.4,3.9,194.5
2015-08-15 11:24:00,FYU,0.25,67.65,20.35,97.34,-37.6,20.8,205.5
2015-08-15 11:25:00,FYU,0.26,67.65,20.35,97.30,-75.5,-11.2,217.3
2015-08-15 11:26:00,FYU,0.28,67.65,20.35,97.26,-86.6,15.0,250.0
2015-08-15 11:27:00,FYU,0.30,67.65,20.35,97.22,-172.0,34.2,295.6
2015-08-15 11:28:00,FYU,0.31,67.65,20.35,97.18,-238.8,30.1,326.4
2015-08-15 11:29:00,FYU,0.33,67.65,20.35,97.14,-467.1,124.9,300.7
2015-08-15 11:30:00,FYU,0.34,67.65,20.35,97.10,-511.5,113.6,329.3
2015-08-15 11:31:00,FYU,0.36,67.65,20.35,97.05,-601.1,101.8,329.1
2015-08-15 11:32:00,FYU,0.38,67.65,20.35,97.01,-706.9,133.3,281.2
2015-08-15 11:33:00,FYU,0.39,67.65,20.35,96.97,-719.2,110.7,280.8
2015-08-15 11:34:00,FYU,0.41,67.65,20.35,96.92,-723.6,133.9,239.8
2015-08-15 11:35:00,FYU,0.42,67.65,20.35,96.88,-708.1,126.4,244.3
2015-08-15 11:36:00,FYU,0.44,67.65,20.35,96.83,-656.9,95.5,279.5
2015-08-15 11:37:00,FYU,0.45,67.65,20.35,96.79,-672.0,162.4,233.7
2015-08-15 11:38:00,FYU,0.47,67.65,20.35,96.74,-726.3,232.2,163.7
2015-08-15 11:39:00,FYU,0.49,67.65,20.35,96.70,-727.7,324.5,109.8
2015-08-15 11:40:00,FYU,0.50,67.65,20.35,96.65,-640.3,320.2,197.4
2015-08-15 11:41:00,FYU,0.52,67.65,20.35,96.61,-657.5,345.1,330.5
2015-08-15 11:42:00,FYU,0.53,67.65,20.35,96.56,-682.6,318.4,341.4
2015-08-15 11:43:00,FYU,0.55,67.65,20.35,96.51,-642.3,293.5,373.7
2015-08-15 11:44:00,FYU,0.56,67.65,20.35,96.46,-478.7,262.6,413.7
2015-08-15 11:45:00,FYU,0.58,67.65,20.35,96.42,-402.3,170.8,521.6
2015-08-15 11:46:00,FYU,0.60,67.65,20.35,96.37,-402.1,81.1,549.9
2015-08-15 11:47:00,FYU,0.61,67.65,20.35,96.32,-376.5,19.6,562.1
2015-08-15 11:48:00,FYU,0.63,67.65,20.35,96.27,-351.1,-40.3,561.2
2015-08-15 11:49:00,FYU,0.64,67.65,20.35,96.22,-324.1,-44.7,544.0
2015-08-15 11:50:00,FYU,0.66,67.65,20.35,96.17,-286.4,-56.6,533.1
2015-08-15 11:51:00,FYU,0.67,67.65,20.35,96.12,-262.0,-52.1,513.7
2015-08-15 11:52:00,FYU,0.69,67.65,20.35,96.07,-245.5,-68.4,500.6
2015-08-15 11:53:00,FYU,0.70,67.65,20.35,96.02,-228.8,-77.5,485.5
2015-08-15 11:54:00,FYU,0.72,67.65,20.35,95.97,-221.9,-87.3,470.4
2015-08-15 11:55:00,FYU,0.74,67.65,20.35,95.92,-173.2,-78.0,466.7
2015-08-15 11:56:00,FYU,0.75,67.65,20.35,95.87,-163.8,-68.7,472.5
2015-08-15 11:57:00,FYU,0.77,67.65,20.35,95.81,-157.6,-89.8,475.6
2015-08-15 11:58:00,FYU,0.78,67.65,20.35,95.76,-176.5,-84.1,453.9
2015-08-15 11:59:00,FYU,0.80,67.65,20.35,95.71,-173.8,-68.3,438.6
2015-08-15 12:00:00,FYU,0.81,67.65,20.35,95.66,-184.4,-68.9,429.8
2015-08-15 12:01:00,FYU,0.83,67.65,20.35,95.60,-203.1,-37.7,415.5
2015-08-15 12:02:00,FYU,0.84,67.65,20.35,95.55,-171.3,-11.4,431.2
2015-08-15 12:03:00,FYU,0.86,67.65,20.35,95.49,-162.5,-33.3,443.0
2015-08-15 12:04:00,FYU,0.87,67.65,20.35,95.44,-181.1,-68.6,443.1
2015-08-15 12:05:00,FYU,0.89,67.65,20.35,95.38,-288.6,-104.6,410.8
2015-08-15 12:06:00,FYU,0.90,67.65,20.35,95.33,-339.2,-136.8,383.1
2015-08-15 12:07:00,FYU,0.92,67.65,20.35,95.27,-280.3,-100.5,380.3
2015-08-15 12:08:00,FYU,0.94,67.65,20.35,95.22,-288.6,-53.7,362.9
2015-08-15 12:09:00,FYU,0.95,67.65,20.35,95.16,-258.0,-60.7,380.7
2015-08-15 12:10:00,FYU,0.97,67.65,20.35,95.10,-261.6,-49.9,357.3
2015-08-15 12:11:00,FYU,0.98,67.65,20.35,95.05,-276.2,-25.1,340.7
2015-08-15 12:12:00,FYU,1.00,67.65,20.35,94.99,-227.5,5.7,352.4
2015-08-15 12:13:00,FYU,1.01,67.65,20.35,94.93,-181.3,4.9,363.0
2015-08-15 12:14:00,FYU,1.03,67.65,20.35,94.88,-221.9,57.4,317.1
2015-08-15 12:15:00,FYU,1.04,67.65,20.35,94.82,-243.2,96.6,283.4
2015-08-15 12:16:00,FYU,1.06,67.65,20.35,94.76,-227.0,98.7,303.5
2015-08-15 12:17:00,FYU,1.07,67.65,20.35,94.70,-228.5,106.6,320.2
2015-08-15 12:18:00,FYU,1.09,67.65,20.35,94.64,-221.3,79.3,336.4
2015-08-15 12:19:00,FYU,1.10,67.65,20.35,94.58,-229.9,92.1,345.3
2015-08-15 12:20:00,FYU,1.12,67.65,20.35,94.52,-233.5,104.5,356.0
2015-08-15 12:21:00,FYU,1.13,67.65,20.35,94.46,-223.8,90.8,368.8
2015-08-15 12:22:00,FYU,1.15,67.65,20.35,94.40,-230.3,86.8,370.7
2015-08-15 12:23:00,FYU,1.16,67.65,20.35,94.34,-274.2,97.4,353.5
2015-08-15 12:24:00,FYU,1.18,67.65,20.35,94.28,-305.4,126.7,338.6
2015-08-15 12:25:00,FYU,1.19,67.65,20.35,94.22,-265.9,103.6,356.8
2015-08-15 12:26:00,FYU,1.21,67.65,20.35,94.15,-285.8,93.5,362.9
2015-08-15 12:27:00,FYU,1.22,67.65,20.35,94.09,-325.3,114.0,339.9
2015-08-15 12:28:00,FYU,1.24,67.65,20.35,94.03,-330.1,140.4,326.4
2015-08-15 12:29:00,FYU,1.25,67.65,20.35,93.97,-287.3,112.6,348.2
2015-08-15 12:30:00,FYU,1.27,67.65,20.35,93.90,-239.1,87.1,372.7
2015-08-15 12:31:00,FYU,1.28,67.65,20.35,93.84,-223.7,77.2,379.5
2015-08-15 12:32:00,FYU,1.30,67.65,20.35,93.78,-243.2,64.9,376.3
2015-08-15 12:33:00,FYU,1.31,67.65,20.35,93.71,-282.4,72.3,362.4
2015-08-15 12:34:00,FYU,1.33,67.65,20.35,93.65,-296.2,74.8,358.2
2015-08-15 12:35:00,FYU,1.34,67.65,20.35,93.58,-302.3,62.1,362.0
2015-08-15 12:36:00,FYU,1.36,67.65,20.35,93.52,-315.1,66.1,361.6
2015-08-15 12:37:00,FYU,1.37,67.65,20.35,93.45,-334.7,85.8,348.7
2015-08-15 12:38:00,FYU,1.39,67.65,20.35,93.39,-319.3,72.0,354.6
2015-08-15 12:39:00,FYU,1.40,67.65,20.35,93.32,-308.6,57.7,362.9
2015-08-15 12:40:00,FYU,1.42,67.65,20.35,93.25,-305.3,60.8,366.2
2015-08-15 12:41:00,FYU,1.43,67.65,20.35,93.19,-314.3,56.7,370.9
2015-08-15 12:42:00,FYU,1.45,67.65,20.35,93.12,-301.5,55.4,391.7
2015-08-15 12:43:00,FYU,1.46,67.65,20.35,93.05,-298.9,57.2,403.9
2015-08-15 12:44:00,FYU,1.48,67.65,20.35,92.99,-277.7,69.4,409.4
2015-08-15 12:45:00,FYU,1.49,67.65,20.35,92.92,-238.4,81.8,423.4
2015-08-15 12:46:00,FYU,1.50,67.65,20.35,92.85,-220.1,111.5,425.8
2015-08-15 12:47:00,FYU,1.52,67.65,20.35,92.78,-202.7,114.1,437.3
2015-08-15 12:48:00,FYU,1.53,67.65,20.35,92.71,-169.9,95.0,462.6
2015-08-15 12:49:00,FYU,1.55,67.65,20.35,92.65,-129.3,63.1,495.2
2015-08-15 12:50:00,FYU,1.56,67.65,20.35,92.58,-105.0,38.4,519.1
2015-08-15 12:51:00,FYU,1.58,67.65,20.35,92.51,-85.8,9.3,528.9
2015-08-15 12:52:00,FYU,1.59,67.65,20.35,92.44,-67.9,-22.6,525.3
2015-08-15 12:53:00,FYU,1.61,67.65,20.35,92.37,-62.2,-29.3,502.8
2015-08-15 12:54:00,FYU,1.62,67.65,20.35,92.30,-62.4,-18.1,480.9
2015-08-15 12:55:00,FYU,1.64,67.65,20.35,92.23,-50.9,-13.6,467.5
2015-08-15 12:56:00,FYU,1.65,67.65,20.35,92.16,-29.4,-10.3,463.7
2015-08-15 12:57:00,FYU,1.67,67.65,20.35,92.08,-14.6,-2.5,457.9
2015-08-15 12:58:00,FYU,1.68,67.65,20.35,92.01,-15.1,9.9,445.2
2015-08-15 12:59:00,FYU,1.70,67.65,20.35,91.94,-2.3,6.7,441.8
2015-08-15 13:00:00,FYU,1.71,67.65,20.35,91.87,9.2,-2.8,439.4
